Regional Weather Roundup
Issued by NWS

Home | Current Version | Previous Version | Text Only | Print | Product List | Glossary On
Versions: 1 2 3 4 5 6 7 8 9 10 11 12 13 14 15 16 17 18 19 20 21 22 23 24 25 26 27 28 29 30 31 32 33 34 35 36 37 38 39 40 41 42 43 44 45 46 47 48 49 50
000
ASUS43 KBIS 250602
RWRND

NORTH DAKOTA REGIONAL WEATHER ROUNDUP
NATIONAL WEATHER SERVICE BISMARCK ND
100 AM CDT THU MAY 25 2017

NOTE: "FAIR" INDICATES FEW OR NO CLOUDS BELOW 12,000 FEET WITH NO
SIGNIFICANT WEATHER AND/OR OBSTRUCTIONS TO VISIBILITY.


NDZ001>003-009>011-017-250700-
NORTHWEST NORTH DAKOTA

CITY           SKY/WX    TMP DP  RH WIND       PRES   REMARKS
WILLISTON      FAIR      54  50  86 S7        29.38F
6HR MIN TEMP:  54; 6HR MAX TEMP:  65; 6HR PCP:  0.22;

MINOT          CLOUDY    59  47  64 SE12      29.44R
$$

NDZ018>021-031>035-040>046-250700-
SOUTHWEST NORTH DAKOTA

CITY           SKY/WX    TMP DP  RH WIND       PRES   REMARKS
BISMARCK       FAIR      59  44  57 SE15      29.46R
6HR MIN TEMP:  59; 6HR MAX TEMP:  70;

DICKINSON      LGT RAIN  51  47  86 N10       29.42R
GARRISON         N/A     54  47  77 SW8       29.46R
6HR MIN TEMP:  54; 6HR MAX TEMP:  67;

HETTINGER ARPT MOCLDY    52  46  80 N10       29.41R
$$

NDZ004>008-012>016-024-026-027-054-250700-
NORTHEAST NORTH DAKOTA

CITY           SKY/WX    TMP DP  RH WIND       PRES   REMARKS
GRAND FORKS    PTCLDY    53  44  71 SE10      29.61R
GRND FRKS AFB  PTCLDY    53  43  68 SE13      29.60S
DEVILS LAKE    FAIR      53  44  71 SE18G24   29.55S
$$

NDZ022-023-025-028>030-036>039-047>053-250700-
SOUTHEAST NORTH DAKOTA

CITY           SKY/WX    TMP DP  RH WIND       PRES   REMARKS
FARGO          CLEAR     54  43  66 SE13      29.61F
6HR MIN TEMP:  54; 6HR MAX TEMP:  65;

JAMESTOWN      FAIR      51  44  77 SE20G28   29.51F
$$





USA.gov is the U.S. government's official web portal to all federal, state and local government web resources and services.